Time,TemperatureF,DewpointF,PressureIn,WindDirection,WindDirectionDegrees,WindSpeedMPH,WindSpeedGustMPH,Humidity,HourlyPrecipIn,Conditions,Clouds,dailyrainin,SoftwareType,DateUTC
2013-04-09 00:02:00,60.0,55.0,-100.00,North,0,1.0,1.0,83,-99.99,,,-99.99,,2013-04-09 05:02:00,
2013-04-09 00:12:00,60.0,55.0,-100.00,North,350,1.0,1.0,83,-99.99,,,-99.99,,2013-04-09 05:12:00,
2013-04-09 00:22:00,59.0,55.0,-100.00,NNE,30,3.0,4.0,86,-99.99,,,-99.99,,2013-04-09 05:22:00,
2013-04-09 00:32:00,59.0,55.0,-100.00,NNE,30,3.0,4.0,86,-99.99,,,-99.99,,2013-04-09 05:32:00,
2013-04-09 00:42:00,59.0,55.0,-100.00,NNE,25,2.0,4.0,87,-99.99,,,-99.99,,2013-04-09 05:42:00,
2013-04-09 00:52:00,59.0,55.0,-100.00,North,350,1.0,3.0,88,-99.99,,,-99.99,,2013-04-09 05:52:00,
2013-04-09 01:02:00,59.0,55.0,-100.00,North,350,1.0,3.0,88,-99.99,,,-99.99,,2013-04-09 06:02:00,
2013-04-09 01:12:00,58.0,56.0,-100.00,North,0,3.0,6.0,92,-99.99,,,-99.99,,2013-04-09 06:12:00,
2013-04-09 01:22:00,58.0,55.0,-100.00,North,10,2.0,4.0,90,-99.99,,,-99.99,,2013-04-09 06:22:00,
2013-04-09 01:32:00,58.0,55.0,-100.00,North,10,2.0,4.0,90,-99.99,,,-99.99,,2013-04-09 06:32:00,
2013-04-09 01:42:00,59.0,56.0,-100.00,North,10,1.0,4.0,91,-99.99,,,-99.99,,2013-04-09 06:42:00,
2013-04-09 01:52:00,59.0,56.0,-100.00,NE,45,1.0,5.0,89,-99.99,,,-99.99,,2013-04-09 06:52:00,
2013-04-09 02:02:00,59.0,56.0,-100.00,NE,45,1.0,5.0,89,-99.99,,,-99.99,,2013-04-09 07:02:00,
2013-04-09 02:13:00,63.0,58.0,-100.00,NNE,25,4.0,11.0,84,-99.99,,,-99.99,,2013-04-09 07:13:00,
2013-04-09 02:22:00,63.0,57.0,-100.00,NE,45,3.0,7.0,82,-99.99,,,-99.99,,2013-04-09 07:22:00,
2013-04-09 02:32:00,63.0,57.0,-100.00,NE,45,3.0,7.0,82,-99.99,,,-99.99,,2013-04-09 07:32:00,
2013-04-09 02:42:00,63.0,57.0,-100.00,NE,40,2.0,8.0,81,-99.99,,,-99.99,,2013-04-09 07:42:00,
2013-04-09 02:53:00,60.0,55.0,-100.00,North,355,1.0,6.0,86,-99.99,,,-99.99,,2013-04-09 07:53:00,
2013-04-09 03:03:00,60.0,55.0,-100.00,North,355,1.0,6.0,86,-99.99,,,-99.99,,2013-04-09 08:03:00,
2013-04-09 03:12:00,60.0,56.0,-100.00,North,10,1.0,4.0,88,-99.99,,,-99.99,,2013-04-09 08:12:00,
2013-04-09 03:22:00,61.0,57.0,-100.00,SE,135,4.0,9.0,87,-99.99,,,-99.99,,2013-04-09 08:22:00,
2013-04-09 03:32:00,61.0,57.0,-100.00,SE,135,4.0,9.0,87,-99.99,,,-99.99,,2013-04-09 08:32:00,
2013-04-09 03:42:00,59.0,57.0,-100.00,North,10,1.0,9.0,93,-99.99,,,-99.99,,2013-04-09 08:42:00,
2013-04-09 03:52:00,58.0,56.0,-100.00,NNW,335,3.0,7.0,93,-99.99,,,-99.99,,2013-04-09 08:52:00,
2013-04-09 04:02:00,58.0,56.0,-100.00,NNW,335,3.0,7.0,93,-99.99,,,-99.99,,2013-04-09 09:02:00,
2013-04-09 04:12:00,59.0,57.0,-100.00,SE,125,4.0,9.0,93,-99.99,,,-99.99,,2013-04-09 09:12:00,
2013-04-09 04:22:00,59.0,56.0,-100.00,NNE,30,8.0,11.0,92,-99.99,,,-99.99,,2013-04-09 09:22:00,
2013-04-09 04:33:00,59.0,56.0,-100.00,NNE,30,8.0,11.0,92,-99.99,,,-99.99,,2013-04-09 09:33:00,
2013-04-09 04:43:00,58.0,56.0,-100.00,North,10,6.0,11.0,93,-99.99,,,-99.99,,2013-04-09 09:43:00,
2013-04-09 04:53:00,58.0,56.0,-100.00,NNE,30,3.0,10.0,94,-99.99,,,-99.99,,2013-04-09 09:53:00,
2013-04-09 05:03:00,58.0,56.0,-100.00,NNE,30,3.0,10.0,94,-99.99,,,-99.99,,2013-04-09 10:03:00,
2013-04-09 05:13:00,57.0,56.0,-100.00,NE,50,3.0,12.0,94,-99.99,,,-99.99,,2013-04-09 10:13:00,
2013-04-09 05:23:00,56.0,54.0,-100.00,NNE,30,4.0,11.0,93,-99.99,,,-99.99,,2013-04-09 10:23:00,
2013-04-09 05:33:00,56.0,54.0,-100.00,NNE,30,4.0,11.0,93,-99.99,,,-99.99,,2013-04-09 10:33:00,
2013-04-09 05:43:00,56.0,54.0,-100.00,NNE,20,5.0,9.0,94,-99.99,,,-99.99,,2013-04-09 10:43:00,
2013-04-09 05:53:00,56.0,54.0,-100.00,North,0,2.0,8.0,94,-99.99,,,-99.99,,2013-04-09 10:53:00,
2013-04-09 06:02:00,56.0,54.0,-100.00,North,0,2.0,8.0,94,-99.99,,,-99.99,,2013-04-09 11:02:00,
2013-04-09 06:12:00,55.0,54.0,-100.00,North,10,4.0,7.0,94,-99.99,,,-99.99,,2013-04-09 11:12:00,
2013-04-09 06:22:00,55.0,53.0,-100.00,North,0,2.0,10.0,94,-99.99,,,-99.99,,2013-04-09 11:22:00,
2013-04-09 06:32:00,55.0,53.0,-100.00,North,0,2.0,10.0,94,-99.99,,,-99.99,,2013-04-09 11:32:00,
2013-04-09 06:42:00,54.0,52.0,-100.00,North,0,2.0,8.0,94,-99.99,,,-99.99,,2013-04-09 11:42:00,
2013-04-09 06:52:00,54.0,52.0,-100.00,NNE,30,5.0,9.0,94,-99.99,,,-99.99,,2013-04-09 11:52:00,
2013-04-09 07:02:00,54.0,52.0,-100.00,NNE,30,5.0,9.0,94,-99.99,,,-99.99,,2013-04-09 12:02:00,
2013-04-09 07:12:00,54.0,52.0,-100.00,NNE,25,4.0,8.0,94,-99.99,,,-99.99,,2013-04-09 12:12:00,
2013-04-09 07:22:00,53.0,51.0,-100.00,NNE,20,4.0,9.0,93,-99.99,,,-99.99,,2013-04-09 12:22:00,
2013-04-09 07:32:00,53.0,51.0,-100.00,NNE,20,4.0,9.0,93,-99.99,,,-99.99,,2013-04-09 12:32:00,
2013-04-09 07:42:00,54.0,52.0,-100.00,NNE,20,3.0,11.0,94,-99.99,,,-99.99,,2013-04-09 12:42:00,
2013-04-09 07:53:00,54.0,52.0,-100.00,North,5,4.0,8.0,93,-99.99,,,-99.99,,2013-04-09 12:53:00,
2013-04-09 08:02:00,54.0,52.0,-100.00,North,5,4.0,8.0,93,-99.99,,,-99.99,,2013-04-09 13:02:00,
2013-04-09 08:12:00,53.0,51.0,-100.00,North,0,4.0,8.0,92,-99.99,,,-99.99,,2013-04-09 13:12:00,
2013-04-09 08:23:00,53.0,51.0,-100.00,North,5,5.0,10.0,92,-99.99,,,-99.99,,2013-04-09 13:23:00,
2013-04-09 08:32:00,53.0,51.0,-100.00,North,5,5.0,10.0,92,-99.99,,,-99.99,,2013-04-09 13:32:00,
2013-04-09 08:42:00,53.0,51.0,-100.00,North,0,4.0,9.0,92,-99.99,,,-99.99,,2013-04-09 13:42:00,
2013-04-09 08:53:00,53.0,51.0,-100.00,North,5,3.0,6.0,92,-99.99,,,-99.99,,2013-04-09 13:53:00,
2013-04-09 09:03:00,53.0,51.0,-100.00,North,5,3.0,6.0,92,-99.99,,,-99.99,,2013-04-09 14:03:00,
2013-04-09 09:12:00,53.0,51.0,-100.00,North,5,5.0,11.0,91,-99.99,,,-99.99,,2013-04-09 14:12:00,
2013-04-09 09:22:00,54.0,51.0,-100.00,NNE,25,5.0,9.0,91,-99.99,,,-99.99,,2013-04-09 14:22:00,
2013-04-09 09:32:00,54.0,51.0,-100.00,NNE,25,5.0,9.0,91,-99.99,,,-99.99,,2013-04-09 14:32:00,
2013-04-09 09:42:00,54.0,51.0,-100.00,North,10,6.0,10.0,90,-99.99,,,-99.99,,2013-04-09 14:42:00,
2013-04-09 09:52:00,54.0,51.0,-100.00,NNE,20,4.0,6.0,91,-99.99,,,-99.99,,2013-04-09 14:52:00,
2013-04-09 10:02:00,54.0,51.0,-100.00,NNE,20,4.0,6.0,91,-99.99,,,-99.99,,2013-04-09 15:02:00,
2013-04-09 10:12:00,54.0,52.0,-100.00,NE,40,5.0,8.0,91,-99.99,,,-99.99,,2013-04-09 15:12:00,
2013-04-09 10:22:00,56.0,52.0,-100.00,North,10,4.0,9.0,88,-99.99,,,-99.99,,2013-04-09 15:22:00,
2013-04-09 10:33:00,56.0,52.0,-100.00,North,10,4.0,9.0,88,-99.99,,,-99.99,,2013-04-09 15:33:00,
2013-04-09 10:43:00,58.0,54.0,-100.00,North,0,3.0,9.0,86,-99.99,,,-99.99,,2013-04-09 15:43:00,
2013-04-09 10:53:00,59.0,55.0,-100.00,NNE,25,2.0,6.0,87,-99.99,,,-99.99,,2013-04-09 15:53:00,
2013-04-09 11:03:00,59.0,55.0,-100.00,NNE,25,2.0,6.0,87,-99.99,,,-99.99,,2013-04-09 16:03:00,
2013-04-09 11:13:00,62.0,56.0,-100.00,North,10,1.0,6.0,80,-99.99,,,-99.99,,2013-04-09 16:13:00,
2013-04-09 11:23:00,58.0,54.0,-100.00,North,0,1.0,2.0,85,-99.99,,,-99.99,,2013-04-09 16:23:00,
2013-04-09 11:33:00,58.0,54.0,-100.00,North,0,1.0,2.0,85,-99.99,,,-99.99,,2013-04-09 16:33:00,
2013-04-09 11:42:00,61.0,56.0,-100.00,NNE,20,2.0,4.0,85,-99.99,,,-99.99,,2013-04-09 16:42:00,
2013-04-09 11:54:00,61.0,57.0,-100.00,SE,145,4.0,9.0,85,-99.99,,,-99.99,,2013-04-09 16:54:00,
2013-04-09 12:02:00,61.0,57.0,-100.00,SE,145,4.0,9.0,85,-99.99,,,-99.99,,2013-04-09 17:02:00,
2013-04-09 12:13:00,66.0,60.0,-100.00,WNW,295,1.0,4.0,81,-99.99,,,-99.99,,2013-04-09 17:13:00,
2013-04-09 12:23:00,69.0,61.0,-100.00,SE,140,5.0,11.0,74,-99.99,,,-99.99,,2013-04-09 17:23:00,
2013-04-09 12:32:00,69.0,61.0,-100.00,SE,140,5.0,11.0,74,-99.99,,,-99.99,,2013-04-09 17:32:00,
2013-04-09 12:42:00,69.0,61.0,-100.00,SE,130,6.0,11.0,77,-99.99,,,-99.99,,2013-04-09 17:42:00,
2013-04-09 12:54:00,70.0,61.0,-100.00,SSE,160,5.0,13.0,72,-99.99,,,-99.99,,2013-04-09 17:54:00,
2013-04-09 13:02:00,70.0,61.0,-100.00,SSE,160,5.0,13.0,72,-99.99,,,-99.99,,2013-04-09 18:02:00,
2013-04-09 13:12:00,73.0,61.0,-100.00,ESE,120,7.0,15.0,67,-99.99,,,-99.99,,2013-04-09 18:12:00,
2013-04-09 13:22:00,74.0,61.0,-100.00,ESE,120,7.0,17.0,64,-99.99,,,-99.99,,2013-04-09 18:22:00,
2013-04-09 13:33:00,74.0,61.0,-100.00,ESE,120,7.0,17.0,64,-99.99,,,-99.99,,2013-04-09 18:33:00,
2013-04-09 13:43:00,74.0,61.0,-100.00,ESE,110,7.0,20.0,63,-99.99,,,-99.99,,2013-04-09 18:43:00,
2013-04-09 13:53:00,76.0,62.0,-100.00,SE,145,9.0,19.0,63,-99.99,,,-99.99,,2013-04-09 18:53:00,
2013-04-09 14:03:00,76.0,62.0,-100.00,SE,145,9.0,19.0,63,-99.99,,,-99.99,,2013-04-09 19:03:00,
2013-04-09 14:12:00,76.0,62.0,-100.00,SE,145,9.0,19.0,63,-99.99,,,-99.99,,2013-04-09 19:12:00,
2013-04-09 14:53:00,75.0,61.0,-100.00,SE,140,5.0,12.0,61,-99.99,,,-99.99,,2013-04-09 19:53:00,
2013-04-09 15:02:00,75.0,61.0,-100.00,SE,140,5.0,12.0,61,-99.99,,,-99.99,,2013-04-09 20:02:00,
2013-04-09 15:12:00,76.0,61.0,-100.00,South,180,4.0,12.0,60,-99.99,,,-99.99,,2013-04-09 20:12:00,
2013-04-09 15:22:00,76.0,61.0,-100.00,South,180,5.0,11.0,60,-99.99,,,-99.99,,2013-04-09 20:22:00,
2013-04-09 15:30:00,76.0,60.0,-100.00,South,175,4.0,14.0,58,-99.99,,,-99.99,,2013-04-09 20:30:00,
2013-04-09 15:33:00,76.0,61.0,-100.00,South,180,5.0,11.0,60,-99.99,,,-99.99,,2013-04-09 20:33:00,
2013-04-09 15:43:00,77.0,61.0,-100.00,SE,130,5.0,8.0,58,-99.99,,,-99.99,,2013-04-09 20:43:00,
2013-04-09 15:53:00,77.0,61.0,-100.00,SE,130,6.0,12.0,58,-99.99,,,-99.99,,2013-04-09 20:53:00,
2013-04-09 16:02:00,77.0,61.0,-100.00,SE,130,6.0,12.0,58,-99.99,,,-99.99,,2013-04-09 21:02:00,
2013-04-09 16:13:00,76.0,60.0,-100.00,South,175,4.0,14.0,58,-99.99,,,-99.99,,2013-04-09 21:13:00,
2013-04-09 16:22:00,76.0,60.0,-100.00,South,175,4.0,14.0,58,-99.99,,,-99.99,,2013-04-09 21:22:00,
2013-04-09 16:53:00,73.0,58.0,-100.00,NW,325,7.0,14.0,59,-99.99,,,-99.99,,2013-04-09 21:53:00,
2013-04-09 17:03:00,73.0,58.0,-100.00,NW,325,7.0,14.0,59,-99.99,,,-99.99,,2013-04-09 22:03:00,
2013-04-09 17:13:00,66.0,57.0,-100.00,North,0,4.0,8.0,74,-99.99,,,-99.99,,2013-04-09 22:13:00,
2013-04-09 17:23:00,65.0,57.0,-100.00,NNW,340,4.0,7.0,76,-99.99,,,-99.99,,2013-04-09 22:23:00,
2013-04-09 17:33:00,65.0,57.0,-100.00,NNW,340,4.0,7.0,76,-99.99,,,-99.99,,2013-04-09 22:33:00,
2013-04-09 17:42:00,65.0,58.0,-100.00,North,0,6.0,9.0,76,-99.99,,,-99.99,,2013-04-09 22:42:00,
2013-04-09 17:53:00,64.0,56.0,-100.00,North,0,4.0,9.0,77,-99.99,,,-99.99,,2013-04-09 22:53:00,
2013-04-09 18:03:00,64.0,56.0,-100.00,North,0,4.0,9.0,77,-99.99,,,-99.99,,2013-04-09 23:03:00,
2013-04-09 18:12:00,62.0,56.0,-100.00,NW,325,8.0,12.0,80,-99.99,,,-99.99,,2013-04-09 23:12:00,
2013-04-09 18:23:00,62.0,55.0,-100.00,North,5,7.0,15.0,78,-99.99,,,-99.99,,2013-04-09 23:23:00,
2013-04-09 18:32:00,62.0,55.0,-100.00,North,5,7.0,15.0,78,-99.99,,,-99.99,,2013-04-09 23:32:00,
2013-04-09 18:42:00,61.0,54.0,-100.00,North,355,8.0,15.0,78,-99.99,,,-99.99,,2013-04-09 23:42:00,
2013-04-09 18:53:00,58.0,53.0,-100.00,NNE,15,8.0,13.0,81,-99.99,,,-99.99,,2013-04-09 23:53:00,
2013-04-09 19:03:00,58.0,53.0,-100.00,NNE,15,8.0,13.0,81,-99.99,,,-99.99,,2013-04-10 00:03:00,
2013-04-09 19:12:00,58.0,53.0,-100.00,NNE,15,8.0,13.0,81,-99.99,,,-99.99,,2013-04-10 00:12:00,
2013-04-09 19:23:00,56.0,51.0,-100.00,North,0,7.0,15.0,83,-99.99,,,-99.99,,2013-04-10 00:23:00,
2013-04-09 19:33:00,56.0,51.0,-100.00,North,0,7.0,15.0,83,-99.99,,,-99.99,,2013-04-10 00:33:00,
2013-04-09 19:42:00,54.0,50.0,-100.00,North,0,8.0,18.0,85,-99.99,,,-99.99,,2013-04-10 00:42:00,
2013-04-09 19:53:00,53.0,49.0,-100.00,North,0,9.0,17.0,87,-99.99,,,-99.99,,2013-04-10 00:53:00,
2013-04-09 20:02:00,53.0,49.0,-100.00,North,0,9.0,17.0,87,-99.99,,,-99.99,,2013-04-10 01:02:00,
2013-04-09 20:12:00,52.0,48.0,-100.00,North,5,10.0,16.0,87,-99.99,,,-99.99,,2013-04-10 01:12:00,
2013-04-09 20:23:00,51.0,47.0,-100.00,North,0,7.0,19.0,88,-99.99,,,-99.99,,2013-04-10 01:23:00,
2013-04-09 20:32:00,51.0,47.0,-100.00,North,0,7.0,19.0,88,-99.99,,,-99.99,,2013-04-10 01:32:00,
2013-04-09 20:42:00,50.0,46.0,-100.00,North,0,6.0,21.0,88,-99.99,,,-99.99,,2013-04-10 01:42:00,
2013-04-09 20:53:00,49.0,46.0,-100.00,North,0,9.0,17.0,87,-99.99,,,-99.99,,2013-04-10 01:53:00,
2013-04-09 21:02:00,49.0,46.0,-100.00,North,0,9.0,17.0,87,-99.99,,,-99.99,,2013-04-10 02:02:00,
2013-04-09 21:12:00,49.0,46.0,-100.00,North,0,6.0,14.0,87,-99.99,,,-99.99,,2013-04-10 02:12:00,
2013-04-09 21:22:00,49.0,46.0,-100.00,North,10,6.0,14.0,87,-99.99,,,-99.99,,2013-04-10 02:22:00,
2013-04-09 21:32:00,49.0,46.0,-100.00,North,10,6.0,14.0,87,-99.99,,,-99.99,,2013-04-10 02:32:00,
2013-04-09 21:43:00,49.0,46.0,-100.00,North,10,6.0,16.0,87,-99.99,,,-99.99,,2013-04-10 02:43:00,
2013-04-09 21:53:00,49.0,45.0,-100.00,NNE,20,7.0,15.0,87,-99.99,,,-99.99,,2013-04-10 02:53:00,
2013-04-09 22:03:00,49.0,45.0,-100.00,NNE,20,7.0,15.0,87,-99.99,,,-99.99,,2013-04-10 03:03:00,
2013-04-09 22:12:00,49.0,45.0,-100.00,North,5,6.0,11.0,87,-99.99,,,-99.99,,2013-04-10 03:12:00,
2013-04-09 22:22:00,49.0,45.0,-100.00,North,0,5.0,14.0,88,-99.99,,,-99.99,,2013-04-10 03:22:00,
2013-04-09 22:33:00,49.0,45.0,-100.00,North,0,5.0,14.0,88,-99.99,,,-99.99,,2013-04-10 03:33:00,
2013-04-09 22:43:00,48.0,44.0,-100.00,North,10,5.0,15.0,87,-99.99,,,-99.99,,2013-04-10 03:43:00,
2013-04-09 22:53:00,47.0,44.0,-100.00,North,0,6.0,14.0,88,-99.99,,,-99.99,,2013-04-10 03:53:00,
2013-04-09 23:03:00,47.0,44.0,-100.00,North,0,6.0,14.0,88,-99.99,,,-99.99,,2013-04-10 04:03:00,
2013-04-09 23:13:00,47.0,44.0,-100.00,NNE,25,5.0,16.0,88,-99.99,,,-99.99,,2013-04-10 04:13:00,
2013-04-09 23:23:00,47.0,44.0,-100.00,NE,35,6.0,16.0,87,-99.99,,,-99.99,,2013-04-10 04:23:00,
2013-04-09 23:33:00,47.0,44.0,-100.00,NE,35,6.0,16.0,87,-99.99,,,-99.99,,2013-04-10 04:33:00,
2013-04-09 23:43:00,47.0,44.0,-100.00,NNE,30,6.0,20.0,88,-99.99,,,-99.99,,2013-04-10 04:43:00,
2013-04-09 23:53:00,47.0,44.0,-100.00,NNE,30,9.0,16.0,88,-99.99,,,-99.99,,2013-04-10 04:53:00,